Location: DeSoto
(32.5899°N, 96.8569°W)
Time: 15:48:55
(UTC+00:00)

Daily predictions for brighter satellites

Satellite Brightness Start Highest point End
(mag) Time Altitude Azimuth Time Altitude Azimuth Time Altitude Azimuth
ATLAS 5 CENTAUR R/B 2.0 12:03:11 28° WNW 12:03:31 28° NW 12:07:02 10° N
Cosmos 1340 Rocket 2.7 12:02:46 10° S 12:06:42 89° WNW 12:10:41 10° N
Cosmos 2279 Rocket 4.2 12:02:45 10° NNW 12:08:39 49° W 12:14:34 10° SSW
CZ-4B R/B 3.4 12:06:01 10° NNE 12:09:32 55° E 12:13:08 10° S
Nadezhda 4 Rocket 3.9 12:04:38 10° SSW 12:10:45 72° W 12:16:58 10° N
Envisat 3.6 12:06:23 10° N 12:10:54 33° WNW 12:15:24 10° SW
Cosmos 1500 Rocket 3.5 12:07:13 10° S 12:11:40 83° W 12:16:09 10° N
SKYMED 2 3.7 12:08:59 10° S 12:13:11 50° W 12:17:24 10° NNW
Sich 1 4.4 12:10:44 10° SSE 12:14:45 41° E 12:18:46 10° NNE
Meteor 2-15 4.4 12:14:13 10° NNW 12:20:11 61° W 12:26:06 10° S
ATLAS 3B R/B 2.8 12:16:15 10° SW 12:22:26 47° NW 12:28:54 10° NNE
Cosmos 1805 Rocket 3.8 12:19:43 10° S 12:24:06 76° E 12:28:27 10° N
H-2A R/B 3.6 12:20:32 10° SE 12:24:26 37° ENE 12:28:27 10° N
Cosmos 1151 Rocket 4.5 12:23:48 15° WNW 12:25:21 18° W 12:28:16 10° SW
Lacrosse 5 2.8 12:21:05 10° SSW 12:26:00 53° SE 12:30:57 10° NE
H-2A R/B 4.4 12:28:04 14° WNW 12:28:04 14° WNW 12:29:43 10° WSW
Meteor 1-27 Rocket 3.7 12:23:18 10° N 12:29:00 77° W 12:34:48 10° S
Cosmos 1092 Rocket 4.0 12:23:33 10° S 12:29:47 89° W 12:36:07 10° N
CZ-4C R/B 2.9 12:28:44 10° S 12:31:47 47° W 12:34:48 10° NNW
COSMOS 2487 3.6 12:28:44 10° N 12:31:56 42° ENE 12:35:06 10° SE
Meteor 1-31 Rocket 4.2 12:31:52 10° NNW 12:34:31 18° WNW 12:37:09 10° WSW
SL-4 R/B 2.3 12:34:37 10° WSW 12:37:48 33° NW 12:41:08 10° NNE
Cosmos 990 Rocket 4.4 12:32:58 10° S 12:38:10 70° ESE 12:43:24 10° NNE
Cosmos 1939 Rocket 2.7 12:35:31 10° N 12:39:24 83° WNW 12:43:14 10° SSW
BREEZE-M DEB 4.5 12:37:56 10° WNW 12:40:46 29° NNW 12:47:40 10° NE
DELTA 2 R/B (1) 4.2 12:41:36 10° WNW 12:46:54 44° N 12:52:11 10° E
Meteor 1-25 Rocket 4.2 12:41:31 10° SSW 12:47:04 61° W 12:52:36 10° N
CZ-2D R/B 4.4 12:43:42 10° NNE 12:47:22 47° E 12:51:02 10° S
SMAP 3.1 12:44:49 10° N 12:49:29 84° WNW 12:54:07 10° SSW
Okean 1 4.2 12:46:01 10° N 12:49:53 53° E 12:53:44 10° SSE
USA 215 4.0 12:43:52 10° ESE 12:50:08 51° NE 12:56:23 10° NNW
Cosmos 2297 Rocket 4.0 12:45:41 10° N 12:50:32 29° ENE 12:55:22 10° ESE
SL-8 R/B 3.7 12:47:10 10° NW 12:51:56 75° SW 12:56:41 10° SE
Okean O Rocket 3.4 23:43:58 10° E 23:45:41 12° ENE 23:47:23 10° NE
Cosmos 1666 Rocket 4.3 23:42:38 10° NNE 23:46:35 31° E 23:50:28 10° SE
SL-24 R/B - RUBIN 2 4.0 23:42:36 10° NNW 23:46:43 38° ENE 23:50:44 10° SE
Cosmos 2279 Rocket 4.1 23:41:15 10° SSE 23:47:18 56° E 23:53:20 10° NNE
SMAP 3.1 23:43:13 10° SSE 23:47:46 56° ENE 23:52:19 10° N
CZ-4B R/B 4.2 23:46:43 10° ESE 23:50:50 22° ENE 23:54:53 10° NNE
Meteor PRIRODA 4.5 23:50:13 10° S 23:53:46 54° W 23:57:19 10° NNW
BREEZE-M DEB (TANK) 3.5 23:47:37 10° NW 23:54:45 82° NE 23:57:34 10° SE
Lacrosse 5 rocket 3.4 23:54:24 10° NNE 23:55:05 10° NE 23:55:45 10° NE
